• In Deutschland
  • Länderverzeichnis
  • Für 7 Tage
  • Wassertemperatur
  • Satellitenkarten
  • Wetterkarte
  • Widgets
  • user-avatar
    Anmelden

    Stündliche Wetter Abowian

    Heute, 21 Oktober, Samstag

    Zeit Temperatur Niederschläge Wind Luftdruck Luftfeuchtigkeit
    00:00 +11°C° 0 mm 1 m/S 672 mmHg 45%
    01:00 +11°C° 0 mm 1 m/S 672 mmHg 46%
    02:00 +10°C° 0 mm 1 m/S 672 mmHg 47%
    03:00 +10°C° 0 mm 1 m/S 672 mmHg 44%
    04:00 +10°C° 0 mm 1 m/S 671 mmHg 44%
    05:00 +10°C° 0 mm 1 m/S 671 mmHg 45%
    06:00 +9°C° 0 mm 1 m/S 671 mmHg 45%
    07:00 +11°C° 0 mm 1 m/S 672 mmHg 41%
    08:00 +13°C° 0 mm 1 m/S 672 mmHg 36%
    09:00 +16°C° 0 mm 1 m/S 672 mmHg 32%
    10:00 +18°C° 0 mm 1 m/S 672 mmHg 30%
    11:00 +19°C° 0 mm 1 m/S 672 mmHg 28%
    12:00 +20°C° 0 mm 1 m/S 672 mmHg 25%
    13:00 +20°C° 0 mm 1 m/S 672 mmHg 25%
    14:00 +19°C° 0 mm 2 m/S 671 mmHg 25%
    15:00 +19°C° 0 mm 2 m/S 671 mmHg 25%
    16:00 +18°C° 0 mm 1 m/S 671 mmHg 28%
    17:00 +16°C° 0 mm 1 m/S 670 mmHg 32%
    18:00 +14°C° 0 mm 1 m/S 670 mmHg 36%
    19:00 +13°C° 0 mm 1 m/S 670 mmHg 37%
    20:00 +13°C° 0 mm 1 m/S 670 mmHg 37%
    21:00 +12°C° 0 mm 1 m/S 670 mmHg 38%
    22:00 +12°C° 0 mm 1 m/S 670 mmHg 38%
    23:00 +12°C° 0 mm 1 m/S 670 mmHg 38%

    Morgen, 22 Oktober, Sonntag

    Zeit Temperatur Niederschläge Wind Luftdruck Luftfeuchtigkeit
    00:00 +11°C° 0 mm 1 m/S 670 mmHg 38%
    01:00 +11°C° 0 mm 1 m/S 669 mmHg 38%
    02:00 +10°C° 0 mm 1 m/S 669 mmHg 37%
    03:00 +10°C° 0 mm 1 m/S 669 mmHg 37%
    04:00 +10°C° 0 mm 1 m/S 669 mmHg 37%
    05:00 +10°C° 0 mm 1 m/S 669 mmHg 37%
    06:00 +9°C° 0 mm 1 m/S 669 mmHg 38%
    07:00 +11°C° 0 mm 1 m/S 669 mmHg 35%
    08:00 +13°C° 0 mm 2 m/S 670 mmHg 32%
    09:00 +15°C° 0 mm 2 m/S 670 mmHg 29%
    10:00 +16°C° 0 mm 2 m/S 670 mmHg 27%
    11:00 +17°C° 0 mm 3 m/S 669 mmHg 26%
    12:00 +18°C° 0 mm 3 m/S 669 mmHg 24%
    13:00 +18°C° 0 mm 3 m/S 669 mmHg 24%
    14:00 +18°C° 0 mm 4 m/S 669 mmHg 24%
    15:00 +19°C° 0 mm 4 m/S 668 mmHg 23%
    16:00 +17°C° 0 mm 3 m/S 668 mmHg 27%
    17:00 +15°C° 0 mm 2 m/S 668 mmHg 30%
    18:00 +13°C° 0 mm 2 m/S 667 mmHg 33%
    19:00 +13°C° 0 mm 2 m/S 668 mmHg 34%
    20:00 +12°C° 0 mm 1 m/S 668 mmHg 35%
    21:00 +12°C° 0 mm 1 m/S 668 mmHg 37%
    22:00 +12°C° 0 mm 1 m/S 668 mmHg 38%
    23:00 +11°C° 0 mm 1 m/S 668 mmHg 39%

    übermorgen, 23 Oktober, Montag

    Zeit Temperatur Niederschläge Wind Luftdruck Luftfeuchtigkeit
    00:00 +11°C° 0 mm 1 m/S 668 mmHg 40%
    01:00 +11°C° 0 mm 1 m/S 668 mmHg 42%
    02:00 +10°C° 0 mm 1 m/S 668 mmHg 44%
    03:00 +10°C° 0 mm 1 m/S 668 mmHg 46%
    04:00 +10°C° 0 mm 1 m/S 668 mmHg 47%
    05:00 +9°C° 0 mm 1 m/S 669 mmHg 49%
    06:00 +9°C° 0 mm 1 m/S 669 mmHg 50%
    07:00 +10°C° 0 mm 2 m/S 669 mmHg 46%
    08:00 +13°C° 0 mm 2 m/S 670 mmHg 41%
    09:00 +15°C° 0 mm 2 m/S 671 mmHg 37%
    10:00 +16°C° 0 mm 2 m/S 670 mmHg 34%
    11:00 +17°C° 0 mm 2 m/S 670 mmHg 32%
    12:00 +18°C° 0 mm 3 m/S 670 mmHg 29%
    13:00 +18°C° 0 mm 3 m/S 670 mmHg 28%
    14:00 +18°C° 0 mm 3 m/S 670 mmHg 27%
    15:00 +19°C° 0 mm 3 m/S 670 mmHg 27%
    16:00 +17°C° 0 mm 3 m/S 670 mmHg 30%
    17:00 +15°C° 0 mm 2 m/S 670 mmHg 34%
    18:00 +13°C° 0 mm 2 m/S 669 mmHg 37%
    19:00 +13°C° 0 mm 2 m/S 670 mmHg 37%
    20:00 +12°C° 0 mm 2 m/S 670 mmHg 37%
    21:00 +12°C° 0 mm 1 m/S 670 mmHg 37%
    22:00 +12°C° 0 mm 1 m/S 670 mmHg 38%
    23:00 +11°C° 0 mm 1 m/S 670 mmHg 38%

    24 Oktober, Dienstag

    Zeit Temperatur Niederschläge Wind Luftdruck Luftfeuchtigkeit
    00:00 +11°C° 0 mm 1 m/S 670 mmHg 39%
    01:00 +11°C° 0 mm 1 m/S 670 mmHg 39%
    02:00 +11°C° 0 mm 1 m/S 670 mmHg 40%
    03:00 +11°C° 0 mm 1 m/S 670 mmHg 40%
    04:00 +10°C° 0 mm 1 m/S 670 mmHg 40%
    05:00 +10°C° 0 mm 1 m/S 670 mmHg 41%
    06:00 +10°C° 0 mm 1 m/S 670 mmHg 41%
    07:00 +12°C° 0 mm 2 m/S 671 mmHg 37%
    08:00 +14°C° 0 mm 2 m/S 671 mmHg 34%
    09:00 +16°C° 0 mm 2 m/S 672 mmHg 30%
    10:00 +17°C° 0 mm 3 m/S 672 mmHg 29%
    11:00 +18°C° 0 mm 3 m/S 672 mmHg 27%
    12:00 +19°C° 0 mm 4 m/S 672 mmHg 26%
    13:00 +19°C° 0 mm 4 m/S 672 mmHg 26%
    14:00 +19°C° 0 mm 4 m/S 671 mmHg 26%
    15:00 +19°C° 0 mm 4 m/S 671 mmHg 26%
    16:00 +18°C° 0 mm 3 m/S 671 mmHg 30%
    17:00 +16°C° 0 mm 3 m/S 671 mmHg 33%
    18:00 +14°C° 0 mm 2 m/S 671 mmHg 36%
    19:00 +14°C° 0 mm 2 m/S 672 mmHg 36%
    20:00 +14°C° 0 mm 2 m/S 672 mmHg 36%
    21:00 +13°C° 0 mm 2 m/S 672 mmHg 36%
    22:00 +13°C° 0 mm 2 m/S 672 mmHg 36%
    23:00 +13°C° 0 mm 2 m/S 672 mmHg 37%

    25 Oktober, Mittwoch

    Zeit Temperatur Niederschläge Wind Luftdruck Luftfeuchtigkeit
    00:00 +13°C° 0 mm 2 m/S 673 mmHg 37%
    01:00 +13°C° 0 mm 2 m/S 673 mmHg 39%
    02:00 +12°C° 0 mm 2 m/S 673 mmHg 41%
    03:00 +12°C° 0 mm 2 m/S 673 mmHg 43%
    04:00 +12°C° 0 mm 2 m/S 673 mmHg 44%
    05:00 +12°C° 0 mm 2 m/S 673 mmHg 45%
    06:00 +10°C° 0 mm 2 m/S 673 mmHg 46%
    07:00 +13°C° 0 mm 2 m/S 674 mmHg 42%
    08:00 +15°C° 0 mm 2 m/S 674 mmHg 38%
    09:00 +17°C° 0 mm 3 m/S 675 mmHg 33%
    10:00 +19°C° 0 mm 3 m/S 675 mmHg 32%
    11:00 +20°C° 0 mm 3 m/S 674 mmHg 30%
    12:00 +21°C° 0 mm 4 m/S 674 mmHg 28%
    13:00 +21°C° 0 mm 4 m/S 674 mmHg 28%
    14:00 +21°C° 0 mm 4 m/S 674 mmHg 28%
    15:00 +21°C° 0 mm 4 m/S 673 mmHg 28%
    16:00 +19°C° 0 mm 3 m/S 673 mmHg 31%
    17:00 +18°C° 0 mm 3 m/S 673 mmHg 35%
    18:00 +16°C° 0 mm 2 m/S 673 mmHg 39%
    19:00 +16°C° 0 mm 2 m/S 673 mmHg 39%
    20:00 +15°C° 0 mm 2 m/S 674 mmHg 39%
    21:00 +15°C° 0 mm 2 m/S 674 mmHg 39%
    22:00 +14°C° 0 mm 2 m/S 674 mmHg 40%
    23:00 +14°C° 0 mm 1 m/S 674 mmHg 40%

    26 Oktober, Donnerstag

    Zeit Temperatur Niederschläge Wind Luftdruck Luftfeuchtigkeit
    00:00 +14°C° 0 mm 1 m/S 674 mmHg 40%
    01:00 +14°C° 0 mm 2 m/S 674 mmHg 41%
    02:00 +14°C° 0 mm 2 m/S 674 mmHg 41%
    03:00 +13°C° 0 mm 2 m/S 674 mmHg 41%
    04:00 +13°C° 0 mm 2 m/S 674 mmHg 42%
    05:00 +13°C° 0 mm 2 m/S 674 mmHg 43%
    06:00 +13°C° 0 mm 2 m/S 674 mmHg 44%
    07:00 +15°C° 0 mm 2 m/S 674 mmHg 40%
    08:00 +17°C° 0 mm 2 m/S 674 mmHg 37%
    09:00 +19°C° 0 mm 2 m/S 675 mmHg 33%
    10:00 +20°C° 0 mm 3 m/S 675 mmHg 31%
    11:00 +21°C° 0 mm 3 m/S 674 mmHg 29%
    12:00 +23°C° 0 mm 4 m/S 674 mmHg 27%
    13:00 +23°C° 0 mm 4 m/S 674 mmHg 27%
    14:00 +23°C° 0 mm 4 m/S 673 mmHg 27%
    15:00 +23°C° 0 mm 4 m/S 673 mmHg 27%
    16:00 +21°C° 0 mm 3 m/S 673 mmHg 31%
    17:00 +19°C° 0 mm 3 m/S 672 mmHg 35%
    18:00 +17°C° 0 mm 2 m/S 672 mmHg 39%
    19:00 +17°C° 0 mm 2 m/S 672 mmHg 38%
    20:00 +16°C° 0 mm 2 m/S 672 mmHg 38%
    21:00 +16°C° 0 mm 2 m/S 672 mmHg 38%
    22:00 +16°C° 0 mm 2 m/S 672 mmHg 39%
    23:00 +16°C° 0 mm 2 m/S 672 mmHg 39%
    Mehr zeigen